[Iaude] MPEC V32: 2023 VQ [a=2.44,e=0.60,i=12.0,H=26.3]
    mpec at marsden.cfa.harvard.edu 
    mpec at marsden.cfa.harvard.edu
       
    Sat Nov  4 12:02:57 EDT 2023
    
    
  
M.P.E.C. 2023-V32                              Issued 2023 November 4, 16:01 UT
     The Minor Planet Electronic Circulars contain information on unusual
         minor planets, routine data on comets and natural satellites,
         and occasional editorial announcements.  They are published
    on behalf of Division F of the International Astronomical Union by the
          Minor Planet Center, Smithsonian Astrophysical Observatory,
                          Cambridge, MA 02138, U.S.A.
			  
             Prepared using the Tamkin Foundation Computer Network
                              MPC at CFA.HARVARD.EDU
            URL https://www.minorplanetcenter.net/    ISSN 1523-6714
                                    2023 VQ                                     
Observations:
     K23V00Q*1C2023 11 03.46569303 49 38.914+26 24 00.72         19.69GVEV032G96
     K23V00Q 1C2023 11 03.47082203 49 44.231+26 21 51.01         19.96GVEV032G96
     K23V00Q 1C2023 11 03.48111503 49 55.056+26 17 29.22         19.45GVEV032G96
     K23V00Q mC2023 11 03.51735303 50 32.980+26 02 11.10         19.93GVEV032I52
     K23V00Q mC2023 11 03.51824703 50 33.950+26 01 48.20         19.95GVEV032I52
     K23V00Q KC2023 11 03.90910303 57 34.042+23 26 22.52         19.5 GVEV032J95
     K23V00Q KC2023 11 03.92353703 57 47.131+23 20 58.42         20.1 GVEV032J95
     K23V00Q pC2023 11 04.06910903 59 50.02 +22 27 33.0          20.1 GVEV032L01
     K23V00Q KC2023 11 04.07052903 59 51.26 +22 27 01.7          20.0 GVEV032L01
     K23V00Q pC2023 11 04.07207103 59 52.47 +22 26 27.5          19.8 GVEV032L01
     K23V00Q pC2023 11 04.07361403 59 53.74 +22 25 53.7          19.8 GVEV032L01
     K23V00Q KC2023 11 04.15203904 00 59.87 +21 57 19.0                VEV032204
     K23V00Q KC2023 11 04.16098304 01 07.31 +21 54 04.9          20.0 GVEV032204
     K23V00Q mC2023 11 04.29654804 03 16.628+21 07 28.96         20.68GVEV032I52
     K23V00Q mC2023 11 04.29791504 03 17.654+21 07 00.37         20.07GVEV032I52
     K23V00Q mC2023 11 04.29899004 03 18.457+21 06 38.84         20.38GVEV032I52
     K23V00Q mC2023 11 04.29930404 03 18.716+21 06 32.00         20.22GVEV032I52
     K23V00Q 1C2023 11 04.42313904 04 50.185+20 24 16.27         20.73GVEV032G96
     K23V00Q 1C2023 11 04.43346304 04 57.742+20 20 45.46         20.07GVEV032G96
     K23V00Q 1C2023 11 04.43863904 05 01.550+20 18 59.98         20.27GVEV032G96
Observer details:
204 Schiaparelli Observatory.  Observers L. Buzzi, G. Galli.  0.84-m f/3.5
    reflector + CCD.
G96 Mt. Lemmon Survey.  Observer J. B. Fazekas.  Measurers E. C. Beshore, D.
    Fay, J. B. Fazekas, D. C. Fuls, A. R. Gibbs, A. D. Grauer, H. Groeller, J.
    K. Hogan, R. A. Kowalski, S. M. Larson, G. J. Leonard, D. Rankin, R. L.
    Seaman, F. C. Shelly, K. W. Wierzchos.  1.5-m reflector + 10K CCD.
I52 Steward Observatory, Mt. Lemmon Station.  Observer D. Rankin.  Measurers
    E. C. Beshore, D. Fay, J. B. Fazekas, D. C. Fuls, A. R. Gibbs, A. D.
    Grauer, H. Groeller, J. K. Hogan, R. A. Kowalski, S. M. Larson, G. J.
    Leonard, D. Rankin, R. L. Seaman, F. C. Shelly, K. W. Wierzchos.  1.0-m
    prime focus + CCD.
J95 Great Shefford.  Observer P. Birtwhistle.  0.41-m f/6.3 Schmidt-Cassegrain
    + CCD.
L01 Visnjan Observatory, Tican.  Observer K. Korlevic.  1.0-m f/2.9 reflector
    + CCD.
Orbital elements:
2023 VQ                                                  Earth MOID = 0.0272 AU
Epoch 2023 Sept. 13.0 TT = JDT 2460200.5                Veres                   
M 352.65273              (2000.0)            P               Q                  
n   0.25896666     Peri.  150.14278     +0.96963534     -0.20051465             
a   2.4376619      Node   222.17393     +0.16185964     +0.95533948             
e   0.5986541      Incl.   12.03628     +0.18332694     +0.21707222             
P   3.81           H   26.31          G   0.15           U   8                  
Residuals in seconds of arc
231103 G96  0.1-  0.4-    231104 L01  0.1+  0.1-    231104 I52  0.1-  0.2-
231103 G96  0.7-  0.4+    231104 L01  0.8+  0.2-    231104 I52  0.3-  0.5+
231103 G96  0.1+  0.2+    231104 L01  0.3-  0.4-    231104 I52  0.0   0.1+
231103 I52  0.1-  0.0     231104 L01  0.5-  0.2-    231104 G96  0.3-  0.6+
231103 I52  0.4+  0.3-    231104 204  0.2-  0.1-    231104 G96  0.1+  0.4-
231103 J95 (0.1-  1.1+)   231104 204  0.1+  0.1+    231104 G96  0.7+  0.8-
231103 J95  0.2+  0.2+    231104 I52  0.0   0.2+
Ephemeris:
2023 VQ                  a,e,i = 2.44, 0.60, 12                  q = 0.9783
Date    TT    R. A. (2000) Decl.     Delta      r    Elong.  Phase     V
2023 10 05    17 44 06.6 +24 37 20   0.1699  0.9821    79.0    91.2    25.7
...
2023 10 20    18 16 19.7 +34 52 47   0.07789 0.9852    79.8    95.7    24.2
...
2023 10 28    20 42 22.4 +58 19 33   0.03410 1.0034   105.5    72.6    21.5
...
2023 11 03    03 40 21.2 +29 49 34   0.03428 1.0241   158.0    21.3    20.1
2023 11 04    03 58 50.4 +22 54 46   0.03865 1.0280   158.6    20.7    20.3
2023 11 05    04 11 58.1 +17 23 53   0.04364 1.0321   157.4    21.6    20.6
...
2023 11 11    04 46 18.7 +00 52 51   0.07961 1.0597   149.6    28.2    22.2
...
2023 11 19    04 58 17.4 -05 49 49   0.1334  1.1034   147.6    28.7    23.4
...
2023 12 04    05 01 30.5 -08 16 29   0.2441  1.2017   149.1    24.9    24.8
M. P. C. Staff               (C) Copyright 2023 MPC           M.P.E.C. 2023-V32
    
    
More information about the Iaude
mailing list